Regional Weather Roundup
Issued by NWS

Home | Current Version | Previous Version | Text Only | Print | Product List | Glossary Off
Versions: 1 2 3 4 5 6 7 8 9 10 11 12 13 14 15 16 17 18 19 20 21 22 23 24 25 26 27

000
ASUS45 KPSR 210410
RWRAZ

ARIZONA HOURLY REGIONAL WEATHER ROUNDUP
NATIONAL WEATHER SERVICE PHOENIX AZ
900 PM MST THU JUL 20 2017

NOTE: FAIR INDICATES FEW OR NO CLOUDS BELOW 12,000 FEET WITH NO
SIGNIFICANT WEATHER AND/OR OBSTRUCTIONS TO VISIBILITY.

AZZ001>003-036-210500-
NORTHWEST ARIZONA

CITY           SKY/WX    TMP DP  RH WIND       PRES   REMARKS
BULLHEAD CITY  CLEAR    102  57  22 SE22      29.76R HX 101
KINGMAN        CLEAR     79  61  53 SE20      30.04R
$$

AZZ004>008-015-016-018-210500-
NORTH CENTRAL ARIZONA

CITY           SKY/WX    TMP DP  RH WIND       PRES   REMARKS
GRAND CANYON   CLOUDY    66  57  72 CALM      30.30S
WILLIAMS       CLOUDY    64  57  77 S6        30.32R
PRESCOTT       PTCLDY    70  61  73 CALM      30.20R
FLAGSTAFF      MOCLDY    60  54  80 CALM      30.35R
PAYSON         CLOUDY    75  63  64 CALM      30.21S
PAGE           MOCLDY    83  55  38 SW13G24   30.06R
$$

AZZ009>014-017-210500-
NORTHEAST ARIZONA

CITY           SKY/WX    TMP DP  RH WIND       PRES   REMARKS
WINSLOW        MOCLDY    71  60  68 SE7       30.18F
SAINT JOHNS    CLOUDY    71  58  63 N6        30.24R
WINDOW ROCK    CLOUDY    69  52  54 SW7       30.30R
SHOW LOW       CLOUDY    59  57  94 CALM      30.33R
$$

AZZ540-542>544-546-548-210500-
GREATER PHOENIX AREA

CITY           SKY/WX    TMP DP  RH WIND       PRES   REMARKS
PHOENIX        MOCLDY    95  62  33 N6        29.85R
BUCKEYE        CLOUDY    91  64  40 W9        29.86S
LUKE AFB       MOCLDY    93  63  36 NW7       29.84R
DEER VALLEY    PTCLDY    88  70  55 W6        29.88R
SCOTTSDALE     MOCLDY    92  65  40 N6        29.90R
MESA-GATEWAY     N/A     91  64  40 S10G25    29.91R
CHANDLER       CLOUDY    93  64  38 SW15      29.89R
$$

AZZ539-553-210500-
SOUTHWEST MARICOPA COUNTY AND PINAL COUNTY

CITY           SKY/WX    TMP DP  RH WIND       PRES   REMARKS
CASA GRANDE    MOCLDY    85  65  51 SE14      29.93R
GILA BEND      PTCLDY    96  63  33 S9        29.84R
$$

AZZ503-504-507>509-210500-
SOUTHEAST ARIZONA

CITY           SKY/WX    TMP DP  RH WIND       PRES   REMARKS
TUCSON         LGT RAIN  76  70  82 CALM      30.08R
DAVIS-MONTHAN  CLOUDY    72  70  93 SE12      30.06R
NOGALES        MOCLDY    69  68  96 E5        30.13S
SIERRA VISTA   CLOUDY    69  64  83 W9        30.19R
DOUGLAS        MOCLDY    73  63  70 E6        30.14R
SAFFORD        CLOUDY    81  63  54 E14       30.05R
$$

AZZ532-210500-
SOUTHWEST ARIZONA

CITY           SKY/WX    TMP DP  RH WIND       PRES   REMARKS
YUMA           CLEAR     95  60  31 S10       29.80R
$$

CAZ041-043-047-048-061-525>527-560>570-210500-
SOUTHERN CALIFORNIA

CITY           SKY/WX    TMP DP  RH WIND       PRES   REMARKS
DOWNTOWN L.A.  CLEAR     71  62  73 W3        29.95R
L.A. AIRPORT   CLEAR     69  63  81 W12       29.95S
SAN DIEGO      PTCLDY    71  63  75 SW6       29.98R
BURBANK        CLEAR     74  58  57 SE7       29.95R
ONTARIO        CLEAR     75  59  57 W8        29.95R
RIVERSIDE      CLEAR     76  58  53 MISG      29.95R
PALM SPRINGS   CLEAR     98  51  20 NW22      29.80R
EL CENTRO NAS  PTCLDY    97  57  26 S10       29.78R
IMPERIAL       MOCLDY    98  63  31 SE13      29.75R HX 100
BLYTHE         PTCLDY   101  60  25 S10       29.78R HX 101
NEEDLES        CLEAR    102  60  25 S15       29.80R HX 103
$$

NVZ020-UTZ003-210500-
SOUTHERN NEVADA-UTAH

CITY           SKY/WX    TMP DP  RH WIND       PRES   REMARKS
LAS VEGAS      MOCLDY    95  55  26 S6        29.87R
SALT LAKE CITY CLOUDY    86  54  33 S17       29.97R
$$

NMZ009-TXZ055-210500-
NEW MEXICO-WEST TEXAS

CITY           SKY/WX    TMP DP  RH WIND       PRES   REMARKS
ALBUQUERQUE    MOCLDY    77  53  43 SE9       30.20R
EL PASO        CLOUDY    79  61  53 SW6       30.13R
$$


........................KEY........................
SKY/WX - SKY CONDITION/WEATHER
TMP    - TEMPERATURE IN FAHRENHEIT
DP     - DEW POINT IN FAHRENHEIT
RH     - RELATIVE HUMIDITY IN PERCENT
WIND   - DIRECTION AND SPEED IN MILES PER HOUR (MPH)
VRB    - VARIABLE WIND DIRECTION
PRES   - MEAN SEA LEVEL PRESSURE IN INCHES OF MERCURY
         F - FALLING PRESSURE   R - RISING PRESSURE
         S - STEADY PRESSURE
VSB    - VISIBILITY IN MILES
HX     - HEAT INDEX IN FAHRENHEIT
WCI    - WIND CHILL INDEX IN FAHRENHEIT
TC     - TEMPERATURE IN CELSIUS WHICH IS ALSO KNOWN AS
         TEMPERATURE IN CENTIGRADE
AFB    - AIR FORCE BASE
         LUKE AFB IS LUKE AIR FORCE BASE
         DAVIS-MONTHAN IS DAVIS-MONTHAN AIR FORCE BASE
NAS    - NAVAL AIR STATION
         EL CENTRO NAS IS EL CENTRO NAVAL AIR STATION
N/A    - NOT AVAILABLE





USA.gov is the U.S. government's official web portal to all federal, state and local government web resources and services.